Crestview, FL

9:32 AM CST on February 08, 2016 (GMT -0600)
Sikes | | Change Station
CLOSE
Current Station
Airport
Location: Crestview,
Elevation: 213 ft
Nearby Weather Stations
Active Advisory: Wind Advisory

Elev 213 ft 30.78 °N, 86.52 °W | Updated 39 minutes ago

Clear
Clear
51 °F
Feels Like 51 °F
N
10
Wind Variable Wind from WSW

Today
High -- | Low -- °F
--% Chance of Precip.
Yesterday
High -- | Low -- °F
Precip. -- in
Pressure 30.02 in
Visibility 10.0 miles
Clouds Clear
Dew Point 38 °F
Humidity 61%
Rainfall 0.00 in
Snow Depth Not available.
6:33 AM 5:27 PM
New Moon, 0% visible
METAR KCEW 081453Z AUTO 24009KT 10SM CLR 11/03 A3002 RMK AO2 SLP165 T01060033 56008
Pressure 30.02 in
Visibility 10.0 miles
Clouds Clear
Dew Point 38 °F
Humidity 61%
Rainfall 0.00 in
Snow Depth Not available.
6:33 AM 5:27 PM
New Moon, 0% visible
METAR KCEW 081453Z AUTO 24009KT 10SM CLR 11/03 A3002 RMK AO2 SLP165 T01060033 56008

10-Day Weather Forecast

Almanac

Astronomy

Feb. 08, 2016 Rise Set
Actual Time
Civil Twilight
Nautical Twilight
Astronomical Twilight
Moon
Length of Visible Light
Length of Day
Tomorrow will be .
, % of the Moon is Illuminated

Today's Extremes

State Highs State Lows

Community

WunderPhotos

Upload Photos

1,891,440 photos uploaded!

WunderBlog® & News

Nearby

Air Quality

  Air Quality AQ Index Pollutant
Not available.

Snow Depth

Station Depth Elevation

Earthquake Activity

City Distance Mag. Time & Date
Minimum magnitude displayed is 2.5.

Coastal Water Temperatures

Place Temperature

Stations

Nearby Weather Stations

Station Location Temp. Windchill Dew Point Humidity Wind Precip. Elev Updated Type
                   

Watches & Warnings

Wind Advisory
Issued: 6:27 AM CST Feb. 8, 2016 – National Weather Service

... Wind Advisory remains in effect from noon today to 6 PM CST
this evening...

* timing... this afternoon.

* Winds... northwest and increasing to 20 to 25 mph with frequent
higher gusts in excess of 30 mph.

Precautionary/preparedness actions...

A Wind Advisory means that winds of 30 to 39 mph are expected.
Winds this strong can make driving difficult... especially for
high profile vehicles. Use extra caution.